SCP
0 0 0 0 0 0 0 0 0 0 0 0 0 0 0 0 0 0 0 0 0 0 0 0 0 0 0 0 0 0 0 0 0 0 0 0 0 0 0 0 0 0 0
0 0 0 0 0 0 0 0 0 0 0 0 0 0 0 0 0 0 0 0 0 0 0 0 0 0 0 0 0 0 0 0 0 0 0 0 0 0 0 0 0 0 0
0 0 0 0 0 0 0 0 0 0 0 0 0 0 0 0 0 0 0 0 0 0 0 0 0 0 0 0 0 0 0 0 0 0 0 0 0 0 0 0 0 0 0
0 0 0 0 0 0 0 0 0 0 0 0 0 0 0 0 0 0 0 0 0 0 0 0 0 0 0 0 0 0 0 0 0 0 0 0 0 0 0 0 0 0 0
0 0 0 0 0 0 0 0 0 0 0 0 0 0 0 0 0 0 0 0 0 0 0 0 0 0 0 0 0 0 0 0 0 0 0 0 0 0 0 0 0 0 0
0 0 0 0 0 0 0 0 0 0 0 0 0 0 0 0 0 0 0 0 0 0 0 0 0 0 0 0 0 0 0 0 0 0 0 0 0 0 0 0 0 0 0
0 0 0 0 0 0 0 0 0 0 0 0 0 0 0 0 0 0 0 0 0 0 0 0 0 0 0 0 0 0 0 0 0 0 0 0 0 0 0 0 0 0 0
0 0 0 0 0 0 0 0 0 0 0 0 0 0 0 0 0 0 0 0 0 0 0 0 0 0 0 0 0 0 0 0 0 0 0 0 0 0 0 0 0 0 0
0 0 0 0 0 0 0 0 0 0 0 0 0 0 0 0 0 0 0 0 0 0 0 0 0 0 0 0 0 0 0 0 0 0 0 0 0 0 0 0 0 0 0
0 0 0 0 0 0 0 0 0 0 0 0 0 0 0 0 0 0 0 0 0 0 0 0 0 0 0 0 0 0 0 0 0 0 0 0 0 0 0 0 0 0 0
0 0 0 0 0 0 0 0 0 0 0 0 0 0 0 0 0 0 0 0 0 0 0 0 0 0 0 0 0 0 0 0 0 0 0 0 0 0 0 0 0 0 0
0 0 0 0 0 0 0 0 0 0 0 0 0 0 0 0 0 0 0 0 0 0 0 0 0 0 0 0 0 0 0 0 0 0 0 0 0 0 0 0 0 0 0
0 0 0 0 0 0 0 0 0 0 0 0 0 0 0 0 0 0 0 0 0 0 0 0 0 0 0 0 0 0 0 0 0 0 0 0 0 0 0 0 0 0 0
0 0 0 0 0 0 0 0 0 0 0 0 0 0 0 0 0 0 0 0 0 0 0 0 0 0 0 0 0 0 0 0 0 0 0 0 0 0 0 0 0 0 0
0 0 0 0 0 0 0 0 0 0 0 0 0 0 0 0 0 0 0 0 0 0 0 0 0 0 0 0 0 0 0 0 0 0 0 0 0 0 0 0 0 0 0
0 0 0 0 0 0 0 0 0 0 0 0 0 0 0 0 0 0 0 0 0 0 0 0 0 0 0 0 0 0 0 0 0 0 0 0 0 0 0 0 0 0 0
0 0 0 0 0 0 0 0 0 0 0 0 0 0 0 0 0 0 0 0 0 0 0 0 0 0 0 0 0 0 0 0 0 0 0 0 0 0 0 0 0 0 0
0 0 0 0 0 0 0 0 0 0 0 0 0 0 0 0 0 0 0 0 0 0 0 0 0 0 0 0 0 0 0 0 0 0 0 0 0 0 0 0 0 0 0
0 0 0 0 0 0 0 0 0 0 0 0 0 0 0 0 0 0 0 0 0 0 0 0 0 0 0 0 0 0 0 0 0 0 0 0 0 0 0 0 0 0 0
0 0 0 0 0 0 0 0 0 0 0 0 0 0 0 0 0 0 0 0 0 0 0 0 0 0 0 0 0 0 0 0 0 0 0 0 0 0 0 0 0 0 0
0 0 0 0 0 0 0 0 0 0 0 0 0 0 0 0 0 0 0 0 0 0 0 0 0 0 0 0 0 0 0 0 0 0 0 0 0 0 0 0 0 0 0
0 0 0 0 0 0 0 0 0 0 0 0 0 0 0 0 0 0 0 0 0 0 0 0 0 0 0 0 0 0 0 0 0 0 0 0 0 0 0 0 0 0 0
0 -0 -0 -0 0 0 0 0 0 0 0 0 0 0 0 0 0 0 0 0 0 0 0 0 0 0 0 0 0 0 0 0 0 0 0 0 0 0 0 0 0 0 0
0 0 0 -0 0 0 0 0 0 0 0 0 0 0 0 0 0 0 0 0 0 0 0 0 0 0 0 0 0 0 0 0 0 0 0 0 0 0 0 0 0 0 0
0 0 0 0 0 0 0 0 0 0 0 0 0 0 0 0 0 0 0 0 0 0 0 0 0 0 0 0 0 0 0 0 0 0 0 0 0 0 0 0 0 0 0
0 0 0 0 0 0 0 0 0 0 0 0 0 0 0 0 0 0 0 0 0 0 0 0 0 0 0 0 0 0 0 0 0 0 0 0 0 0 0 0 0 0 0
Wind_Speed
3 3 2 2 2 1 2 2 2 2 3 3 2 3 2 2 2 2 2 6 7 7 7 8 8 9 9 9 10 10 11 11 11 12 13 13 13 13 13 13 13 14 14
4 3 3 2 1 1 1 2 2 2 2 2 3 2 2 2 2 2 2 3 7 7 8 8 9 9 9 10 10 11 11 12 12 13 13 13 14 14 14 14 15 15 15
4 4 3 2 1 1 2 2 2 2 2 2 3 2 1 2 2 2 2 2 3 6 9 9 9 10 10 10 11 11 11 12 12 13 13 14 14 15 15 15 16 16 16
5 4 3 2 1 2 2 2 2 2 2 2 2 2 1 1 2 2 2 2 2 3 5 8 10 10 10 11 11 12 12 13 13 13 14 14 15 15 16 16 17 17 17
5 4 3 2 2 2 2 2 2 2 2 2 1 2 2 1 1 2 1 1 2 2 2 6 9 10 11 11 12 12 13 13 14 14 15 15 15 16 17 17 18 18 18
5 4 3 3 3 2 2 2 2 2 1 1 2 2 2 2 1 1 1 1 2 3 3 3 4 6 10 11 12 13 14 14 15 15 15 16 16 17 18 18 19 19 20
5 5 3 3 3 3 2 2 2 2 2 2 2 2 3 2 2 1 1 1 2 3 3 3 3 3 4 10 12 13 14 15 16 16 16 17 17 18 19 19 19 20 20
5 4 4 3 3 3 3 2 2 2 1 2 2 2 2 3 3 2 2 1 2 3 3 4 3 3 3 3 8 14 15 16 16 17 17 18 18 19 19 20 20 20 21
4 4 5 4 3 3 3 2 2 3 2 1 2 2 2 1 3 3 2 2 2 3 3 3 3 3 4 4 5 10 15 16 17 18 18 19 19 19 20 20 21 21 21
4 4 4 4 4 3 3 3 2 2 3 1 1 1 1 2 1 3 3 2 3 3 3 3 3 4 4 3 7 12 15 16 17 18 19 19 20 20 20 21 21 21 22
3 4 4 4 4 3 3 3 2 2 2 2 1 1 1 1 1 1 3 4 4 3 3 3 3 3 4 4 5 10 15 16 17 18 19 19 20 21 21 21 21 21 21
2 3 4 3 3 3 3 3 2 3 2 2 1 1 1 1 0 1 2 4 4 4 4 2 2 3 3 4 7 14 15 17 17 18 18 19 20 20 21 21 21 21 21
2 3 4 4 3 3 3 3 2 2 2 2 2 1 1 0 1 1 1 2 4 4 3 2 2 2 4 5 6 14 14 16 17 18 18 18 19 19 19 20 20 21 21
4 4 4 4 4 3 3 3 2 2 2 2 2 1 1 0 0 1 1 1 3 3 3 4 3 2 4 5 8 13 9 16 17 18 18 18 18 18 19 20 20 20 20
3 4 4 4 4 4 3 3 2 2 2 2 2 1 0 0 0 0 0 1 1 3 4 3 3 4 5 5 10 7 8 14 17 18 18 18 18 19 19 19 19 19 20
4 5 4 4 4 3 3 3 2 2 2 1 1 1 0 0 1 1 1 1 1 2 4 4 4 6 7 7 11 8 8 16 16 17 18 18 18 19 19 19 19 19 20
5 5 5 5 4 4 3 3 2 3 2 1 1 1 0 0 0 1 1 1 1 1 4 5 4 5 7 8 8 7 7 7 8 16 18 18 18 18 18 19 19 19 20
5 5 5 4 4 4 4 4 3 3 3 2 1 1 0 0 1 1 1 1 2 2 3 6 5 5 7 8 8 8 8 8 7 14 17 17 18 18 18 19 19 19 19
4 4 4 4 4 4 4 3 3 2 2 2 2 1 1 0 1 1 1 2 2 3 2 3 5 5 5 6 7 8 8 6 8 11 14 15 17 18 18 18 19 19 19
5 4 4 4 3 3 3 3 3 2 2 1 1 1 1 1 2 2 2 2 2 3 3 3 5 6 5 6 6 7 8 7 7 8 10 12 15 17 17 18 18 18 19
5 4 4 3 3 3 3 3 3 3 2 1 0 0 1 1 2 2 2 2 2 2 3 3 5 6 6 6 7 6 8 8 7 4 6 8 8 7 9 13 15 18 19
4 4 4 4 3 2 4 5 4 3 2 2 1 0 1 1 3 4 5 4 4 3 3 3 4 6 7 7 6 7 7 8 7 4 7 9 6 7 7 6 14 19 19
4 4 3 3 2 2 4 4 4 3 2 1 1 0 1 2 3 2 3 5 5 6 6 4 5 6 7 7 7 8 7 8 8 7 6 7 5 7 7 9 16 17 18
4 3 3 3 2 2 3 3 4 3 2 1 0 0 0 2 2 2 2 3 3 4 6 4 4 5 6 6 6 6 7 8 7 5 4 5 5 6 8 7 13 16 18
4 3 3 3 2 2 2 3 4 2 2 1 0 0 1 1 3 4 2 3 4 5 7 8 8 8 10 11 9 5 6 7 8 6 2 4 5 7 7 5 8 14 17
4 3 3 2 2 2 2 3 4 2 2 1 1 1 2 3 4 4 2 2 4 5 5 6 7 8 7 7 9 5 4 6 6 6 3 4 5 6 7 4 5 7 9
Wind_Direction
128 118 107 91 79 71 70 64 61 57 54 49 52 65 67 62 54 39 17 33 35 32 30 25 21 16 12 7 6 3 358 354 351 348 345 341 337 332 329 325 323 319 314
134 128 116 105 92 87 82 82 75 70 58 61 54 54 67 72 60 48 33 26 31 31 28 22 18 13 6 3 1 358 354 351 348 346 343 340 338 334 329 325 322 319 317
132 129 123 115 105 88 81 75 63 63 58 54 48 41 62 68 66 59 45 33 20 24 24 20 12 5 359 356 353 352 349 346 343 342 340 339 337 334 332 328 323 319 316
132 127 125 124 112 96 87 87 74 64 51 50 39 22 38 55 67 65 54 42 26 12 8 9 4 0 356 353 350 348 345 343 342 339 337 335 333 331 330 327 324 320 317
134 130 128 123 113 98 88 88 71 82 64 40 37 31 25 41 58 64 51 38 17 7 358 358 358 354 351 350 348 345 342 340 337 335 334 332 330 329 328 326 324 322 317
136 129 125 119 115 105 86 82 84 62 71 50 44 27 8 9 25 40 27 14 359 358 358 353 349 347 350 348 346 342 340 337 334 333 330 329 327 326 325 324 324 323 321
140 134 130 127 124 122 120 111 97 75 46 38 61 20 355 357 11 355 5 2 352 347 349 347 342 342 339 347 344 342 338 334 331 329 328 327 325 324 323 322 322 321 320
145 142 142 142 137 123 109 104 103 94 54 40 85 78 5 343 340 341 343 342 342 342 341 340 338 338 332 330 334 338 335 332 329 328 328 327 324 322 321 321 321 320 320
150 150 151 145 142 139 142 138 131 120 120 23 57 113 126 246 307 316 310 326 332 329 325 327 333 329 331 327 321 332 334 332 331 329 327 325 324 322 321 321 320 319 319
154 154 151 148 147 145 148 153 135 126 130 127 33 46 124 161 159 310 314 319 318 309 310 318 324 320 323 324 326 330 333 333 331 328 327 326 325 323 322 321 320 319 318
160 157 153 149 151 151 152 146 133 124 131 143 144 124 72 48 95 178 293 314 320 302 301 297 304 314 323 326 319 323 332 332 331 328 327 326 324 323 322 321 320 320 319
166 165 154 154 158 156 159 159 150 141 137 128 126 127 135 143 190 186 267 304 308 303 303 295 303 313 321 323 321 330 332 331 328 327 326 324 323 322 322 322 322 321 321
176 184 165 161 162 163 156 148 142 143 142 138 140 141 124 155 165 186 232 290 299 299 304 299 294 313 330 331 326 335 332 332 331 330 327 326 326 325 326 326 325 324 323
183 174 166 161 158 156 148 143 138 148 134 138 131 133 134 275 141 181 196 261 313 308 297 292 303 308 329 327 326 336 329 330 331 331 331 328 328 328 328 327 327 327 326
169 163 158 157 159 156 151 147 144 148 133 137 147 143 150 268 283 266 234 197 232 300 298 290 307 315 326 323 325 326 322 324 331 332 330 329 329 329 329 329 328 327 326
163 158 155 155 154 152 149 143 146 142 125 127 137 119 67 294 319 321 296 293 240 247 277 286 295 310 321 323 325 325 317 326 328 330 330 331 330 330 330 330 329 327 326
162 162 159 158 156 153 151 146 150 141 133 124 97 107 313 312 320 316 325 314 288 263 276 293 299 313 317 319 322 321 318 317 319 328 329 330 329 330 330 330 329 329 328
163 160 155 154 160 157 156 157 162 155 154 157 161 148 266 335 330 316 306 292 288 277 274 297 310 317 315 315 318 321 325 325 319 323 328 329 329 330 331 331 331 331 330
149 146 148 154 161 161 158 162 163 161 168 176 178 184 225 253 299 298 293 290 291 304 296 296 308 313 311 316 324 322 320 318 320 322 327 329 329 330 331 331 332 332 332
146 145 148 151 154 153 150 152 148 144 151 171 183 195 223 234 247 264 283 292 301 309 313 311 313 316 314 318 324 326 327 328 323 321 326 327 326 328 329 330 331 332 332
142 141 137 137 140 146 151 148 148 141 143 147 145 247 264 303 313 312 320 310 314 316 318 318 316 319 321 328 328 322 321 321 316 310 322 318 318 317 323 326 329 331 333
131 131 137 142 146 155 157 148 135 142 152 156 154 330 314 323 329 336 335 336 335 324 313 309 311 313 312 316 317 321 322 325 321 320 322 312 312 312 317 319 326 330 334
131 131 139 141 148 156 158 153 137 134 146 156 159 165 340 335 340 312 327 342 338 333 326 309 297 300 304 309 315 319 319 316 304 305 314 302 306 310 315 319 325 330 335
135 137 142 143 143 164 155 142 125 116 122 111 138 171 259 306 314 336 345 340 325 322 319 314 292 296 305 308 305 305 305 309 298 294 294 293 305 310 313 312 319 329 335
128 136 145 140 142 160 141 124 110 120 113 85 32 27 356 302 325 353 357 331 327 324 331 329 324 324 326 329 330 328 327 325 319 313 312 304 307 312 304 299 313 326 333
134 133 128 130 139 149 130 113 102 122 119 85 23 353 339 337 341 353 346 324 323 320 327 331 333 333 330 327 333 328 314 316 316 310 316 321 310 324 316 301 309 322 329